Location: Laterina
(43.5167°N, 11.7167°E)
Time: 16:43:58
(UTC+00:00)

Cosmos 1833 Rocket - Pass Details

Date: 24 September 2020
Orbit: 831 x 841 km, 71.0° (Epoch: 25 October)

Event Time Altitude Azimuth Distance (km) Brightness Sun altitude
Rises 20:04:32 0° 331° (NNW) 3,406 6.7 -31.5°
Reaches altitude 10° 20:07:01 10° 328° (NNW) 2,467 5.9 -31.9°
Enters shadow 20:11:40 53° 289° (WNW) 1,033 3.3 -32.6°
